FW3884 Weather Reports


time (UTC)temp
C
wind
direction
speed
KPH
gust
KPH
rain 1hr
cm
rain 24hr
cm
rain mn
cm
humidity
%
barometer
mb
20260510190032 25 0.0 0.0 0.00 0.00 0.00 38 1013.5
20260510184514 25 0.0 0.0 0.00 0.00 0.00 43 1013.6
20260510183014 24 0.0 0.0 0.00 0.00 0.00 46 1013.7
20260510181512 25 0.0 0.0 0.00 0.00 0.00 44 1013.7
20260510180017 26 0.0 0.0 0.00 0.00 0.00 38 1013.9
20260510174508 25 0.0 0.0 0.00 0.00 0.00 38 1014.0
20260510173005 25 0.0 0.0 0.00 0.00 0.00 38 1014.1
20260510171503 24 0.0 0.0 0.00 0.00 0.00 40 1014.2
20260510164610 23 0.0 0.0 0.00 0.00 0.00 46 1014.4
20260510163057 23 0.0 0.0 0.00 0.00 0.00 43 1014.4
20260510161556 23 0.0 0.0 0.00 0.00 0.00 47 1014.5
20260510160054 22 0.0 0.0 0.00 0.00 0.00 48 1014.5
20260510154556 22 0.0 0.0 0.00 0.00 0.00 49 1014.5
20260510153052 23 0.0 0.0 0.00 0.00 0.00 48 1014.9
20260510151553 22 0.0 0.0 0.00 0.00 0.00 49 1014.8
20260510150100 21 0.0 0.0 0.00 0.00 0.00 53 1014.8
20260510144604 20 0.0 0.0 0.00 0.00 0.00 54 1014.6
20260510143038 20 0.0 0.0 0.00 0.00 0.00 59 1014.7
20260510141537 18 0.0 0.0 0.00 0.00 0.00 61 1014.9
20260510140030 17 0.0 0.0 0.00 0.00 0.00 66 1015.0
20260510134527 16 0.0 0.0 0.00 0.00 0.00 67 1014.9
20260510133023 16 0.0 0.0 0.00 0.00 0.00 70 1014.9
20260510131519 15 0.0 0.0 0.00 0.00 0.00 71 1014.8
20260510130014 15 0.0 0.0 0.00 0.00 0.00 74 1014.5
20260510124511 13 0.0 0.0 0.00 0.00 0.00 75 1014.3
20260510123008 13 0.0 0.0 0.00 0.00 0.00 78 1014.2
20260510121506 12 0.0 0.0 0.00 0.00 0.00 80 1014.0
20260510120004 12 0.0 0.0 0.00 0.00 0.00 82 1013.6
20260510114502 11 0.0 0.0 0.00 0.00 0.00 84 1013.4
20260510113102 11 0.0 0.0 0.00 0.00 0.00 84 1013.1
20260510111604 11 0.0 0.0 0.00 0.00 0.00 85 1012.9
20260510110101 11 0.0 0.0 0.00 0.00 0.00 87 1012.7
20260510104605 11 0.0 0.0 0.00 0.00 0.00 88 1012.5
20260510103053 11 0.0 0.0 0.00 0.00 0.00 89 1012.4
20260510101557 11 0.0 0.0 0.00 0.00 0.00 89 1012.2
20260510100100 11 0.0 0.0 0.00 0.00 0.00 87 1012.2
20260510094557 11 0.0 0.0 0.00 0.00 0.00 87 1012.1
20260510093050 11 0.0 0.0 0.00 0.00 0.00 86 1012.0
20260510091548 11 0.0 0.0 0.00 0.00 0.00 86 1011.8
20260510090046 11 0.0 0.0 0.00 0.00 0.00 87 1011.5
20260510084545 11 0.0 0.0 0.00 0.00 0.00 87 1011.4
20260510083046 11 0.0 0.0 0.00 0.00 0.00 86 1011.4
20260510081544 11 0.0 0.0 0.00 0.00 0.00 86 1011.3
20260510080044 11 0.0 0.0 0.00 0.00 0.00 87 1011.2
20260510074546 11 0.0 0.0 0.00 0.00 0.00 87 1011.0
20260510073046 11 0.0 0.0 0.00 0.00 0.00 86 1011.1
20260510071539 11 0.0 0.0 0.00 0.00 0.00 84 1011.1
20260510070042 12 0.0 0.0 0.00 0.00 0.00 84 1011.1
20260510064535 12 0.0 0.0 0.00 0.00 0.00 82 1011.2
20260510063039 12 0.0 0.0 0.00 0.00 0.00 82 1011.3
20260510061533 12 0.0 0.0 0.00 0.00 0.00 82 1011.2
20260510060038 12 0.0 0.0 0.00 0.00 0.00 82 1011.4
20260510054533 12 0.0 0.0 0.00 0.00 0.00 82 1011.4
20260510053030 12 0.0 0.0 0.00 0.00 0.00 83 1011.5
20260510051531 12 0.0 0.0 0.00 0.00 0.00 84 1011.7
20260510050032 12 0.0 0.0 0.00 0.00 0.00 86 1011.5
20260510044525 12 0.0 0.0 0.00 0.00 0.00 89 1011.4
20260510043023 13 0.0 0.0 0.00 0.00 0.00 91 1011.4
20260510041520 13 0.0 0.0 0.00 0.00 0.00 91 1011.5
20260510040018 13 0.0 0.0 0.00 0.00 0.00 91 1011.5
20260510034517 13 0.0 0.0 0.00 0.00 0.00 89 1011.7
20260510033016 14 0.0 0.0 0.00 0.00 0.00 90 1011.6
20260510031521 14 0.0 0.0 0.00 0.00 0.00 89 1011.7
20260510030015 14 0.0 0.0 0.00 0.00 0.00 88 1011.5
20260510024518 14 0.0 0.0 0.00 0.00 0.00 88 1011.4
20260510023014 15 0.0 0.0 0.00 0.00 0.00 85 1011.3
20260510021515 15 0.0 0.0 0.00 0.00 0.00 85 1011.3
20260510020014 15 0.0 0.0 0.00 0.00 0.00 84 1011.1
20260510014514 15 0.0 0.0 0.00 0.00 0.00 75 1010.9
20260510013011 14 0.0 0.0 0.00 0.00 0.00 73 1010.6
20260510011512 15 0.0 0.0 0.00 0.00 0.00 69 1010.4
20260510010011 15 0.0 0.0 0.00 0.00 0.00 67 1010.2
20260510004515 15 0.0 0.0 0.00 0.00 0.00 66 1009.9
20260510003010 16 0.0 0.0 0.00 0.00 0.00 64 1009.4
20260510001519 17 0.0 0.0 0.00 0.00 0.00 62 1009.6
20260510000009 17 0.0 0.0 0.00 0.00 0.00 60 1009.3
20260509234513 18 0.0 0.0 0.00 0.00 0.00 59 1009.4
20260509233009 18 0.0 0.0 0.00 0.00 0.00 58 1009.4
20260509231508 18 0.0 0.0 0.00 0.00 0.00 57 1009.1
20260509230006 18 0.0 0.0 0.00 0.00 0.00 59 1008.8
20260509224506 19 0.0 0.0 0.00 0.00 0.00 64 1008.6
20260509223005 19 0.0 0.0 0.00 0.00 0.00 64 1008.6
20260509221505 20 0.0 0.0 0.00 0.00 0.00 61 1008.8
20260509220004 20 0.0 0.0 0.00 0.00 0.00 60 1008.8
20260509214504 20 0.0 0.0 0.00 0.00 0.00 62 1008.4
20260509213002 21 0.0 0.0 0.00 0.00 0.00 60 1008.4
20260509211501 20 0.0 0.0 0.00 0.00 0.00 64 1008.3
20260509210104 20 0.0 0.0 0.00 0.00 0.00 64 1008.1
20260509204605 20 0.0 0.0 0.00 0.00 0.00 62 1008.2
20260509203101 20 0.0 0.0 0.00 0.00 0.00 66 1008.2
20260509201600 18 0.0 0.0 0.00 0.00 0.00 66 1008.3
20260509200057 18 0.0 0.0 0.00 0.00 0.00 67 1008.5
20260509194558 18 0.0 0.0 0.00 0.00 0.00 69 1008.6
20260509193057 18 0.0 0.0 0.00 0.00 0.00 69 1008.6
20260509191603 18 0.0 0.0 0.00 0.00 0.00 66 1008.6